Retour au catalogue

STARLINK-2667

ActifCommunicationsVLEO
NORAD 48663·PAYLOAD·🇺🇸 United States

Lancé May 26, 2021 depuis Cape Canaveral Space Force Station

Loading…

Prochains Passages (prochaines 24 heures)

TLE

FraisSource: CelesTrak SupGP

Époque: Sep 15, 2026, 01:32 UTC

1 48663C 21044AB  26258.06437500  .00039881  00000+0  12821-2 0  2588
2 48663  53.1586 302.5870 0001390  86.4647   3.6754 15.31692388    12

Suivez STARLINK-2667 en temps réel avec AllMySat

Download on the App Store